Home   Weather   Bregenz   Past weeks

Flag for Austria Past Weather in Bregenz, Vorarlberg, Austria — Yesterday and Last 2 Weeks

Now
21 °F

Cold.


Feels Like: 21 °F
Forecast: 12 / 27 °F
Wind: 2 mph from North

Location: Bregenz

Current Time: Jan 23, 2017 at 1:38:46 pm

Latest Report: Jan 23, 2017 at 12:00 pm


Visibility: N/A

Pressure: 30.34 "Hg

Humidity: 90%

Dew Point: 19 °F

Location of BregenzLocation

Past Weather in Bregenz — Graph

°F

Bregenz Temperature Yesterday

Maximum temperature yesterday: 22 °F (at 3:00 pm)
Minimum temperature yesterday: 16 °F (at 7:00 am)
Average temperature yesterday: 19 °F

High & Low Weather Summary for the Past Weeks

 TemperatureHumidityPressure
High42 °F (Jan 13, 12:00 am)98% (Jan 12, 10:00 pm)30.59 "Hg (Jan 12, 10:00 pm)
Low10 °F (Jan 19, 7:00 am)59% (Jan 19, 2:00 pm)29.47 "Hg (Jan 13, 1:00 am)
Average26 °F84%30.26 "Hg
* Reported Jan 8 12:00 pm — Jan 23 12:00 pm, Bregenz, Weather by CustomWeather, © 2017

Note: Actual official high and low records may vary slightly from our data, if they occured in-between our weather recording intervals... More about our weather records

Advertising

Bregenz Weather History for the Previous 24 Hours

Scroll right to see more
 ConditionsComfort  
Time TempWeatherWind HumidityBarometerVisibility
12:00 pm
Mon, Jan 23
21 °FCold.2 mph90%30.34 "HgN/A
11:00 am19 °FCold.1 mph84%30.36 "HgN/A
10:00 am16 °FFog.2 mph86%30.37 "Hg1 mi
9:00 am16 °FCold.1 mph84%30.35 "HgN/A
8:00 am14 °FCold.1 mph81%30.35 "HgN/A
7:00 am15 °FCold.2 mph83%30.35 "HgN/A
6:00 am16 °FCold.1 mph85%30.34 "HgN/A
5:00 am18 °FCold.1 mph94%30.34 "HgN/A
4:00 am15 °FCold.2 mph83%30.36 "HgN/A
3:00 am17 °FCold.1 mph89%30.36 "HgN/A
2:00 am17 °FCold.3 mph88%30.36 "HgN/A
1:00 am18 °FCold.2 mph89%30.36 "HgN/A
12:00 am19 °FCold.2 mph94%30.37 "HgN/A
11:00 pm
Sun, Jan 22
20 °FCold.3 mph93%30.36 "HgN/A
10:00 pm21 °FCold.2 mph92%30.35 "HgN/A
9:00 pm22 °FCold.No wind92%30.34 "HgN/A
8:00 pm21 °FCold.2 mph92%30.34 "HgN/A
7:00 pm21 °FCold.1 mph94%30.34 "HgN/A
6:00 pm21 °FCold.1 mph93%30.33 "HgN/A
5:00 pm21 °FCold.No wind89%30.32 "HgN/A
4:00 pm21 °FCold.1 mph85%30.32 "HgN/A
3:00 pm22 °FCold.2 mph81%30.32 "HgN/A
2:00 pm22 °FCold.1 mph80%30.32 "HgN/A
1:00 pm19 °FCold.2 mph88%30.36 "HgN/A
Weather by CustomWeather, © 2017

See weather overviewHow to use our weather pages